Location: *
(33.6842°N, 117.7925°W)
Time: 01:33:20
(UTC+00:00)

Cosmos 1850 Rocket - Pass Details

Date: 21 October 2019
Orbit: 754 x 786 km, 74.0° (Epoch: 20 November)

Event Time Altitude Azimuth Distance (km) Brightness Sun altitude
Rises 12:42:14 0° 196° (SSW) 3,199 7.1 -17.0°
Reaches altitude 10° 12:44:35 10° 197° (SSW) 2,275 6.3 -16.5°
Maximum altitude 12:49:45 87° 285° (WNW) 760 3.9 -15.5°
Drops below altitude 10° 12:54:56 10° 16° (NNE) 2,283 6.6 -14.4°
Sets 12:57:18 0° 17° (NNE) 3,211 7.4 -13.9°
